EZS42JW EGKK-LSGG

Flight info

Callsign EZS42JW
Flight time 1h 15m
Altitude 35000
Route BOGNA L612 HAWKE UL612 VEULE DCT PEKIM DCT PILUL DCT PIMUP/N0372F270 DCT PIXIS DCT PIBAT/N0350F230 DCT LUSAR
Aircraft A320/M-SDE2E3FGHIJ1RWXYZ/LB1

Departure

Time 2026-04-15 13:17
Airport London Gatwick Airport (EGKK)

Arrival

Time 2026-04-15 14:33
Airport Geneva International Airport (LSGG)
Time Latitude Longitude Altitude Speed Heading
2026-04-15 12:18 51.15591 -0.17621 204 ft 0 kts 347°
2026-04-15 13:07 51.15575 -0.17615 215 ft 4 kts 347°
2026-04-15 13:07 51.15549 -0.17606 204 ft 4 kts 348°
2026-04-15 13:08 51.15528 -0.17608 215 ft 4 kts 54°
2026-04-15 13:08 51.15521 -0.17636 204 ft 4 kts 77°
2026-04-15 13:08 51.15518 -0.17654 204 ft 0 kts 77°
2026-04-15 13:10 51.15519 -0.17650 204 ft 1 kts 77°
2026-04-15 13:10 51.15523 -0.17617 208 ft 5 kts 78°
2026-04-15 13:11 51.15534 -0.17538 212 ft 9 kts 78°
2026-04-15 13:11 51.15531 -0.17447 212 ft 7 kts 122°
2026-04-15 13:11 51.15484 -0.17416 211 ft 8 kts 167°
2026-04-15 13:11 51.15420 -0.17394 208 ft 10 kts 168°
2026-04-15 13:12 51.15349 -0.17370 204 ft 11 kts 168°
2026-04-15 13:12 51.15273 -0.17340 207 ft 11 kts 158°
2026-04-15 13:12 51.15207 -0.17272 204 ft 10 kts 145°
2026-04-15 13:12 51.15182 -0.17179 204 ft 9 kts 78°
2026-04-15 13:13 51.15194 -0.17091 204 ft 8 kts 78°
2026-04-15 13:13 51.15206 -0.17008 212 ft 6 kts 77°
2026-04-15 13:13 51.15214 -0.16946 204 ft 6 kts 77°
2026-04-15 13:13 51.15218 -0.16920 213 ft 1 kts 78°
2026-04-15 13:14 51.15218 -0.16916 204 ft 2 kts 78°
2026-04-15 13:15 51.15222 -0.16850 204 ft 8 kts 98°
2026-04-15 13:15 51.15185 -0.16793 212 ft 9 kts 162°
2026-04-15 13:15 51.15135 -0.16778 208 ft 5 kts 175°
2026-04-15 13:15 51.15118 -0.16823 202 ft 1 kts 257°
2026-04-15 13:16 51.15117 -0.16828 202 ft 0 kts 258°
2026-04-15 13:16 51.15116 -0.16842 207 ft 7 kts 258°
2026-04-15 13:17 51.15054 -0.17290 213 ft 79 kts 258°
2026-04-15 13:17 51.14888 -0.18480 207 ft 138 kts 257°
2026-04-15 13:17 51.14684 -0.20016 851 ft 141 kts 250°
2026-04-15 13:17 51.14468 -0.21534 1635 ft 144 kts 250°
2026-04-15 13:18 51.14214 -0.23184 2096 ft 165 kts 251°
2026-04-15 13:18 51.13938 -0.25091 2474 ft 190 kts 252°
2026-04-15 13:18 51.13641 -0.27218 3194 ft 200 kts 252°
2026-04-15 13:18 51.13345 -0.29384 4177 ft 201 kts 252°
2026-04-15 13:19 51.13044 -0.31586 5169 ft 205 kts 253°
2026-04-15 13:19 51.12738 -0.33826 6102 ft 211 kts 252°
2026-04-15 13:19 51.12085 -0.35997 6606 ft 229 kts 226°
2026-04-15 13:19 51.10694 -0.37308 7304 ft 243 kts 195°
2026-04-15 13:20 51.08975 -0.37106 8205 ft 259 kts 167°
2026-04-15 13:20 51.07269 -0.36126 9202 ft 262 kts 165°
2026-04-15 13:20 51.05550 -0.35081 10163 ft 266 kts 165°
2026-04-15 13:20 51.03758 -0.33983 10621 ft 287 kts 165°
2026-04-15 13:21 51.01849 -0.32814 11262 ft 298 kts 165°
2026-04-15 13:21 50.99896 -0.31615 12137 ft 303 kts 165°
2026-04-15 13:21 50.97922 -0.30405 13012 ft 305 kts 165°
2026-04-15 13:21 50.95927 -0.29194 13892 ft 308 kts 165°
2026-04-15 13:22 50.93912 -0.27977 14630 ft 312 kts 165°
2026-04-15 13:22 50.91875 -0.26753 15354 ft 315 kts 165°
2026-04-15 13:22 50.89820 -0.25517 16093 ft 318 kts 165°
2026-04-15 13:22 50.87737 -0.24265 16811 ft 321 kts 165°
2026-04-15 13:23 50.85633 -0.23004 17516 ft 325 kts 165°
2026-04-15 13:23 50.83504 -0.21733 18253 ft 329 kts 165°
2026-04-15 13:23 50.81352 -0.20453 18898 ft 332 kts 165°
2026-04-15 13:23 50.79189 -0.19163 19551 ft 334 kts 165°
2026-04-15 13:24 50.77012 -0.17863 20213 ft 335 kts 165°
2026-04-15 13:24 50.74826 -0.16553 20865 ft 337 kts 165°
2026-04-15 13:24 50.72628 -0.15236 21507 ft 338 kts 165°
2026-04-15 13:24 50.70417 -0.13917 22141 ft 340 kts 166°
2026-04-15 13:25 50.68192 -0.12597 22769 ft 342 kts 166°
2026-04-15 13:25 50.65956 -0.11275 23379 ft 344 kts 166°
2026-04-15 13:25 50.63712 -0.09950 23906 ft 346 kts 166°
2026-04-15 13:25 50.61446 -0.08613 24391 ft 349 kts 166°
2026-04-15 13:26 50.59165 -0.07262 24866 ft 351 kts 166°
2026-04-15 13:26 50.56869 -0.05904 25335 ft 353 kts 166°
2026-04-15 13:26 50.54558 -0.04540 25796 ft 356 kts 166°
2026-04-15 13:26 50.52231 -0.03167 26239 ft 358 kts 166°
2026-04-15 13:27 50.49888 -0.01785 26690 ft 361 kts 166°
2026-04-15 13:27 50.47527 -0.00394 27075 ft 364 kts 166°
2026-04-15 13:27 50.45161 0.01134 27407 ft 374 kts 160°
2026-04-15 13:27 50.42941 0.03265 27780 ft 383 kts 154°
2026-04-15 13:28 50.40713 0.05584 28166 ft 386 kts 154°
2026-04-15 13:28 50.38463 0.07918 28551 ft 389 kts 154°
2026-04-15 13:28 50.36193 0.10265 28953 ft 392 kts 154°
2026-04-15 13:28 50.33914 0.12621 29361 ft 395 kts 154°
2026-04-15 13:29 50.31614 0.14996 29767 ft 397 kts 154°
2026-04-15 13:29 50.29299 0.17382 30155 ft 400 kts 154°
2026-04-15 13:29 50.26968 0.19777 30497 ft 402 kts 154°
2026-04-15 13:29 50.24624 0.22187 30827 ft 404 kts 154°
2026-04-15 13:30 50.22267 0.24606 31156 ft 406 kts 154°
2026-04-15 13:30 50.19896 0.27033 31474 ft 409 kts 154°
2026-04-15 13:30 50.17515 0.29472 31791 ft 410 kts 154°
2026-04-15 13:30 50.15132 0.31921 32185 ft 410 kts 154°
2026-04-15 13:31 50.12753 0.34371 32616 ft 409 kts 154°
2026-04-15 13:31 50.10380 0.36816 33042 ft 409 kts 154°
2026-04-15 13:31 50.08010 0.39252 33470 ft 408 kts 154°
2026-04-15 13:31 50.05643 0.41678 33904 ft 407 kts 154°
2026-04-15 13:32 50.03280 0.44096 34292 ft 406 kts 154°
2026-04-15 13:32 50.00920 0.46508 34580 ft 406 kts 154°
2026-04-15 13:32 49.98558 0.48915 34853 ft 407 kts 154°
2026-04-15 13:32 49.96179 0.51331 35034 ft 410 kts 154°
2026-04-15 13:33 49.91434 0.56152 35109 ft 403 kts 154°
2026-04-15 13:33 49.86763 0.60889 35114 ft 401 kts 153°
2026-04-15 13:34 49.82484 0.66621 35112 ft 410 kts 144°
2026-04-15 13:34 49.78339 0.72673 35118 ft 409 kts 144°
2026-04-15 13:35 49.74190 0.78707 35099 ft 409 kts 144°
2026-04-15 13:35 49.70030 0.84718 35101 ft 410 kts 144°
2026-04-15 13:36 49.65864 0.90716 35070 ft 410 kts 144°
2026-04-15 13:36 49.61689 0.96741 35111 ft 411 kts 144°
2026-04-15 13:37 49.57542 1.02706 35123 ft 411 kts 144°
2026-04-15 13:37 49.53360 1.08705 35131 ft 410 kts 144°
2026-04-15 13:38 49.49182 1.14689 35109 ft 411 kts 144°
2026-04-15 13:38 49.44995 1.20673 35111 ft 411 kts 144°
2026-04-15 13:39 49.41485 1.25689 35120 ft 412 kts 144°
2026-04-15 13:39 49.37281 1.31663 35121 ft 411 kts 144°
2026-04-15 13:40 49.33068 1.37620 35106 ft 413 kts 144°
2026-04-15 13:40 49.28847 1.43591 35100 ft 413 kts 144°
2026-04-15 13:41 49.24623 1.49554 35110 ft 413 kts 144°
2026-04-15 13:41 49.20412 1.55475 35131 ft 414 kts 145°
2026-04-15 13:42 49.16133 1.61469 35147 ft 415 kts 144°
2026-04-15 13:42 49.11885 1.67436 35151 ft 415 kts 144°
2026-04-15 13:43 49.07630 1.73379 35153 ft 415 kts 145°
2026-04-15 13:43 49.03362 1.79307 35138 ft 417 kts 144°
2026-04-15 13:44 48.99068 1.85276 35150 ft 418 kts 144°
2026-04-15 13:44 48.94769 1.91249 35162 ft 418 kts 144°
2026-04-15 13:45 48.90467 1.97209 35185 ft 418 kts 144°
2026-04-15 13:47 48.73262 2.20854 35167 ft 418 kts 144°
2026-04-15 13:47 48.68948 2.26760 35167 ft 418 kts 144°
2026-04-15 13:48 48.64612 2.32655 35173 ft 420 kts 144°
2026-04-15 13:48 48.60266 2.38554 35163 ft 420 kts 144°
2026-04-15 13:49 48.55918 2.44461 35148 ft 421 kts 144°
2026-04-15 13:49 48.51561 2.50365 35151 ft 421 kts 144°
2026-04-15 13:50 48.47197 2.56257 35175 ft 421 kts 144°
2026-04-15 13:50 48.42828 2.62143 35154 ft 422 kts 144°
2026-04-15 13:51 48.38438 2.68036 35152 ft 424 kts 144°
2026-04-15 13:51 48.34029 2.73935 35160 ft 425 kts 144°
2026-04-15 13:52 48.29600 2.79857 35165 ft 427 kts 144°
2026-04-15 13:52 48.25109 2.85663 35170 ft 425 kts 147°
2026-04-15 13:53 48.20434 2.91050 35174 ft 423 kts 149°
2026-04-15 13:53 48.15715 2.96326 35160 ft 424 kts 148°
2026-04-15 13:54 48.11019 3.01677 35152 ft 425 kts 147°
2026-04-15 13:54 48.06041 3.06269 35163 ft 417 kts 162°
2026-04-15 13:55 48.00697 3.09636 35171 ft 418 kts 162°
2026-04-15 13:55 47.95333 3.13009 35159 ft 418 kts 162°
2026-04-15 13:56 47.89961 3.16382 35167 ft 419 kts 162°
2026-04-15 13:56 47.84578 3.19748 35173 ft 420 kts 162°
2026-04-15 13:57 47.79187 3.23107 35181 ft 420 kts 162°
2026-04-15 13:57 47.73784 3.26467 35171 ft 421 kts 162°
2026-04-15 13:58 47.68411 3.29817 35176 ft 421 kts 162°
2026-04-15 13:58 47.63010 3.33181 35178 ft 421 kts 162°
2026-04-15 13:59 47.57597 3.36528 35167 ft 422 kts 162°
2026-04-15 13:59 47.52168 3.39877 35157 ft 423 kts 162°
2026-04-15 14:00 47.46723 3.43236 35166 ft 424 kts 162°
2026-04-15 14:00 47.41275 3.46593 35172 ft 425 kts 162°
2026-04-15 14:01 47.33077 3.51642 35164 ft 426 kts 162°
2026-04-15 14:02 47.27597 3.54998 35170 ft 427 kts 162°
2026-04-15 14:02 47.22104 3.58348 35175 ft 428 kts 162°
2026-04-15 14:03 47.16606 3.61703 35180 ft 428 kts 162°
2026-04-15 14:03 47.11103 3.65061 35171 ft 428 kts 161°
2026-04-15 14:04 47.05591 3.68406 35183 ft 429 kts 161°
2026-04-15 14:04 47.00081 3.71754 35177 ft 430 kts 159°
2026-04-15 14:04 46.97454 3.73891 35184 ft 435 kts 148°
2026-04-15 14:05 46.95117 3.76735 35176 ft 440 kts 137°
2026-04-15 14:05 46.93171 3.80212 35174 ft 444 kts 126°
2026-04-15 14:05 46.91701 3.84203 35179 ft 448 kts 114°
2026-04-15 14:06 46.89473 3.92662 35167 ft 449 kts 112°
2026-04-15 14:06 46.87216 4.01181 35172 ft 450 kts 113°
2026-04-15 14:07 46.84945 4.09691 35184 ft 449 kts 112°
2026-04-15 14:07 46.82663 4.18191 35191 ft 450 kts 112°
2026-04-15 14:08 46.80500 4.26744 35188 ft 450 kts 105°
2026-04-15 14:08 46.79193 4.35682 35192 ft 450 kts 102°
2026-04-15 14:09 46.77891 4.44621 35195 ft 450 kts 102°
2026-04-15 14:09 46.76572 4.53576 34925 ft 453 kts 102°
2026-04-15 14:09 46.75909 4.58066 34349 ft 453 kts 102°
2026-04-15 14:10 46.75244 4.62549 33743 ft 452 kts 102°
2026-04-15 14:10 46.74579 4.67007 33195 ft 448 kts 102°
2026-04-15 14:10 46.73918 4.71430 32657 ft 445 kts 102°
2026-04-15 14:10 46.73263 4.75823 32114 ft 442 kts 102°
2026-04-15 14:11 46.72612 4.80179 31586 ft 439 kts 102°
2026-04-15 14:11 46.71965 4.84515 31063 ft 436 kts 102°
2026-04-15 14:11 46.71319 4.88823 30559 ft 433 kts 102°
2026-04-15 14:11 46.70675 4.93096 30020 ft 430 kts 101°
2026-04-15 14:12 46.70035 4.97324 29525 ft 424 kts 102°
2026-04-15 14:12 46.69400 5.01493 29055 ft 419 kts 102°
2026-04-15 14:12 46.68773 5.05609 28586 ft 414 kts 102°
2026-04-15 14:12 46.68153 5.09672 28127 ft 408 kts 102°
2026-04-15 14:13 46.67541 5.13685 27678 ft 404 kts 102°
2026-04-15 14:13 46.66945 5.17599 27241 ft 399 kts 102°
2026-04-15 14:13 46.66350 5.21522 26800 ft 395 kts 102°
2026-04-15 14:13 46.65757 5.25463 26329 ft 392 kts 102°
2026-04-15 14:14 46.65177 5.29311 25875 ft 389 kts 101°
2026-04-15 14:14 46.64606 5.33096 25402 ft 387 kts 102°
2026-04-15 14:14 46.64028 5.36912 24934 ft 385 kts 102°
2026-04-15 14:14 46.63450 5.40710 24443 ft 384 kts 102°
2026-04-15 14:15 46.62872 5.44496 23955 ft 383 kts 102°
2026-04-15 14:15 46.62296 5.48268 23416 ft 381 kts 102°
2026-04-15 14:15 46.61718 5.52017 22923 ft 378 kts 102°
2026-04-15 14:15 46.61140 5.55735 22444 ft 375 kts 102°
2026-04-15 14:16 46.60566 5.59428 21975 ft 373 kts 102°
2026-04-15 14:16 46.59994 5.63098 21504 ft 371 kts 102°
2026-04-15 14:16 46.59422 5.66735 21061 ft 369 kts 102°
2026-04-15 14:16 46.58847 5.70359 20597 ft 367 kts 102°
2026-04-15 14:17 46.58273 5.73966 20136 ft 365 kts 102°
2026-04-15 14:17 46.57630 5.77529 19683 ft 364 kts 110°
2026-04-15 14:17 46.56493 5.80801 19232 ft 363 kts 124°
2026-04-15 14:17 46.54851 5.83561 18777 ft 361 kts 139°
2026-04-15 14:18 46.52844 5.85737 18298 ft 360 kts 146°
2026-04-15 14:18 46.50791 5.87795 17832 ft 357 kts 146°
2026-04-15 14:18 46.48755 5.89839 17413 ft 354 kts 146°
2026-04-15 14:18 46.46737 5.91870 16977 ft 352 kts 146°
2026-04-15 14:19 46.44729 5.93886 16539 ft 350 kts 146°
2026-04-15 14:19 46.42729 5.95891 16108 ft 349 kts 146°
2026-04-15 14:19 46.40735 5.97882 15673 ft 348 kts 146°
2026-04-15 14:19 46.38750 5.99864 15323 ft 344 kts 146°
2026-04-15 14:20 46.36724 6.01633 15076 ft 336 kts 159°
2026-04-15 14:20 46.34488 6.02289 14949 ft 324 kts 181°
2026-04-15 14:20 46.32315 6.01720 14757 ft 316 kts 202°
2026-04-15 14:20 46.30473 6.00080 14461 ft 310 kts 224°
2026-04-15 14:21 46.28962 5.97879 14162 ft 307 kts 227°
2026-04-15 14:21 46.27469 5.95684 13840 ft 305 kts 227°
2026-04-15 14:21 46.25981 5.93510 13477 ft 303 kts 226°
2026-04-15 14:21 46.24503 5.91357 13110 ft 302 kts 226°
2026-04-15 14:22 46.23027 5.89210 12774 ft 300 kts 226°
2026-04-15 14:22 46.21560 5.87075 12440 ft 299 kts 226°
2026-04-15 14:22 46.20098 5.84953 12085 ft 297 kts 226°
2026-04-15 14:22 46.18643 5.82844 11733 ft 296 kts 226°
2026-04-15 14:23 46.17196 5.80743 11384 ft 294 kts 226°
2026-04-15 14:23 46.15754 5.78654 11026 ft 293 kts 226°
2026-04-15 14:23 46.14323 5.76574 10683 ft 291 kts 226°
2026-04-15 14:23 46.12906 5.74499 10345 ft 289 kts 226°
2026-04-15 14:24 46.11500 5.72435 9978 ft 288 kts 226°
2026-04-15 14:24 46.10108 5.70382 9604 ft 286 kts 226°
2026-04-15 14:24 46.09188 5.69026 9360 ft 285 kts 226°
2026-04-15 14:24 46.07335 5.66416 9019 ft 275 kts 216°
2026-04-15 14:25 46.05620 5.65387 8891 ft 264 kts 187°
2026-04-15 14:25 46.03845 5.65664 8766 ft 254 kts 158°
2026-04-15 14:25 46.02410 5.67080 8596 ft 251 kts 136°
2026-04-15 14:25 46.01183 5.68874 8444 ft 251 kts 133°
2026-04-15 14:26 46.00373 5.70110 8329 ft 250 kts 132°
2026-04-15 14:26 45.99485 5.72211 8008 ft 247 kts 104°
2026-04-15 14:26 45.99471 5.74631 7674 ft 243 kts 73°
2026-04-15 14:26 46.00315 5.76694 7339 ft 241 kts 46°
2026-04-15 14:27 46.01484 5.78386 7106 ft 236 kts 44°
2026-04-15 14:27 46.02620 5.80012 6991 ft 227 kts 45°
2026-04-15 14:27 46.03732 5.81620 6748 ft 226 kts 45°
2026-04-15 14:27 46.04842 5.83231 6453 ft 227 kts 45°
2026-04-15 14:28 46.05957 5.84849 6136 ft 229 kts 45°
2026-04-15 14:28 46.07063 5.86454 5822 ft 229 kts 45°
2026-04-15 14:28 46.08184 5.88085 5522 ft 229 kts 44°
2026-04-15 14:28 46.09306 5.89716 5218 ft 229 kts 44°
2026-04-15 14:29 46.10425 5.91344 4903 ft 226 kts 44°
2026-04-15 14:29 46.11515 5.92931 4599 ft 219 kts 44°
2026-04-15 14:29 46.12563 5.94459 4309 ft 210 kts 44°
2026-04-15 14:29 46.13573 5.95931 4032 ft 204 kts 44°
2026-04-15 14:30 46.14559 5.97368 3768 ft 200 kts 43°
2026-04-15 14:30 46.15536 5.98794 3524 ft 198 kts 44°
2026-04-15 14:30 46.16486 6.00184 3255 ft 190 kts 44°
2026-04-15 14:30 46.17382 6.01492 2983 ft 177 kts 44°
2026-04-15 14:31 46.18223 6.02721 2763 ft 167 kts 44°
2026-04-15 14:31 46.19005 6.03865 2544 ft 152 kts 44°
2026-04-15 14:31 46.19716 6.04903 2318 ft 141 kts 44°
2026-04-15 14:31 46.20389 6.05884 2117 ft 136 kts 45°
2026-04-15 14:32 46.21046 6.06845 1930 ft 134 kts 45°
2026-04-15 14:32 46.21696 6.07795 1762 ft 133 kts 46°
2026-04-15 14:32 46.22341 6.08743 1591 ft 132 kts 47°
2026-04-15 14:32 46.22981 6.09685 1424 ft 129 kts 46°
2026-04-15 14:33 46.23536 6.10499 1387 ft 92 kts 45°
2026-04-15 14:33 46.23823 6.10919 1379 ft 29 kts 45°
2026-04-15 14:33 46.23871 6.11026 1380 ft 10 kts 93°
2026-04-15 14:33 46.23831 6.11071 1379 ft 6 kts 171°
2026-04-15 14:34 46.23798 6.11078 1376 ft 3 kts 172°
2026-04-15 14:34 46.23791 6.11080 1381 ft 2 kts 171°
2026-04-15 14:34 46.23753 6.11088 1383 ft 8 kts 172°
2026-04-15 14:34 46.23695 6.11063 1384 ft 9 kts 219°
2026-04-15 14:35 46.23641 6.10985 1387 ft 13 kts 225°
2026-04-15 14:35 46.23586 6.10906 1387 ft 6 kts 220°
2026-04-15 14:35 46.23552 6.10922 1399 ft 6 kts 140°
2026-04-15 14:35 46.23528 6.10955 1402 ft 1 kts 136°
2026-04-15 14:36 46.23527 6.10956 1393 ft 0 kts 136°